Tracking 28790 objects as of 19-Apr-2024
HD Live streaming from Space Station
objects crossing your sky now

COSMOS 2161

Track COSMOS 2161 now!
10-day predictions
COSMOS 2161 is classified as:


NORAD ID: 21732
Int'l Code: 1991-068E
Perigee: 1,400.3 km
Apogee: 1,416.7 km
Inclination: 82.6 °
Period: 113.8 minutes
Semi major axis: 7779 km
RCS: 1.1057 m2 (large)
Launch date: September 28, 1991
Source: Commonwealth of Independent States (former USSR) (CIS)
Launch site: PLESETSK MISSILE AND SPACE COMPLEX (PKMTR)
Your satellite tracking list
Your tracking list is empty




NASA's NSSDC Master Catalog

Two Line Element Set (TLE):
1 21732U 91068E   24109.86795640  .00000050  00000-0  21140-3 0  9996
2 21732  82.5751  71.4169 0010529 338.4117  79.3378 12.65244163503444
Source of the keplerian elements: AFSPC